Regional Weather Roundup
Issued by NWS Nashville, TN

Home | Current Version | Previous Version | Text Only | Print | Product List | Glossary On
Versions: 1 2 3 4 5 6 7 8 9 10 11 12 13 14 15 16 17 18 19 20 21 22 23 24 25 26 27 28 29 30 31 32 33 34 35 36 37 38 39 40 41 42 43 44 45 46 47 48 49
000
ASUS44 KOHX 291510
RWROHX
MIDDLE TENNESSEE HOURLY WEATHER ROUNDUP
NATIONAL WEATHER SERVICE NASHVILLE TN
1000 AM CDT WED JUL 29 2015

NOTE: "FAIR" INDICATES FEW OR NO CLOUDS BELOW 12,000 FEET WITH
NO SIGNIFICANT WEATHER AND/OR OBSTRUCTIONS TO VISIBILITY.

* THESE REPORTS ARE NOT UNDER NWS QUALITY CONTROL AND MAY NOT
  REPORT WEATHER SUCH AS PRECIPITATION AND FOG.


TNZ005>011-023>034-057-059-062>066-078-080-291600
...NORTHERN MIDDLE TENNESSEE...

CITY           SKY/WX    TMP DP  RH WIND       PRES   REMARKS
CLARKSVILLE    TSTM      74  69  85 NW20G36   30.06R VSB 1/4
CROSSVILLE     PTSUNNY   81  71  71 CALM      30.11S
DICKSON        CLOUDY    73  72  94 CALM      30.06R
NASHVILLE      PTSUNNY   84  74  71 VRB3      30.05S HX  91
ROCKWOOD       SUNNY     82  74  77 CALM      30.09F
SMYRNA         PTSUNNY   86  75  69 CALM      30.05F HX  95
$$
TNZ056-058-060-061-075>077-079-093>097-291600
...SOUTHERN MIDDLE TENNESSEE...

CITY           SKY/WX    TMP DP  RH WIND       PRES   REMARKS
COLUMBIA       MOSUNNY   82  79  89 E8        30.05  HX  93
LEWISBURG      PTSUNNY   84  73  69 NW3       30.06R HX  90
MCMINNVILLE    SUNNY     82  81  94 NW3       30.07S HX  95
SHELBYVILLE    PTSUNNY   84  75  74 CALM      30.07R HX  92
TULLAHOMA      MOSUNNY   82  73  74 CALM      30.08S
WINCHESTER     MOSUNNY   82  75  78 CALM      30.07R
$$


...KEY TO REMARKS...
VSB - VISIBILITY IN MILES
WCI - WIND CHILL INDEX
HX  - HEAT INDEX



USA.gov is the U.S. government's official web portal to all federal, state and local government web resources and services.